• In Hungary
  • List of Countries
  • For 7 days
  • Water Temperature
  • Satellite Maps
  • Weather Map
  • News
  • Weather Widgets
  • user-avatar
    Login

    Hourly Weather Bolshie Shali

    Today, 19 September, Wednesday

    Time Temperature Precipitation Wind Pressure Humidity
    00:00 +8°C° 0 mm 4 mps 736 mmHg 91%
    01:00 +8°C° 0 mm 4 mps 736 mmHg 90%
    02:00 +8°C° 0 mm 4 mps 736 mmHg 88%
    03:00 +9°C° 0 mm 3 mps 735 mmHg 88%
    04:00 +8°C° 0.1 mm 4 mps 735 mmHg 88%
    05:00 +8°C° 0.1 mm 5 mps 735 mmHg 88%
    06:00 +8°C° 0.1 mm 5 mps 735 mmHg 87%
    07:00 +8°C° 0.2 mm 5 mps 735 mmHg 87%
    08:00 +8°C° 0.2 mm 6 mps 735 mmHg 86%
    09:00 +8°C° 0 mm 6 mps 736 mmHg 86%
    10:00 +8°C° 0.1 mm 6 mps 736 mmHg 85%
    11:00 +8°C° 0.1 mm 6 mps 736 mmHg 83%
    12:00 +8°C° 0.1 mm 6 mps 736 mmHg 82%
    13:00 +8°C° 0 mm 6 mps 737 mmHg 80%
    14:00 +9°C° 0 mm 6 mps 737 mmHg 77%
    15:00 +9°C° 0 mm 6 mps 737 mmHg 74%
    16:00 +8°C° 0 mm 5 mps 738 mmHg 75%
    17:00 +8°C° 0 mm 4 mps 738 mmHg 77%
    18:00 +7°C° 0 mm 4 mps 738 mmHg 78%
    19:00 +8°C° 0 mm 3 mps 739 mmHg 81%
    20:00 +7°C° 0 mm 3 mps 739 mmHg 84%
    21:00 +7°C° 0 mm 3 mps 739 mmHg 87%
    22:00 +5°C° 0 mm 3 mps 739 mmHg 89%
    23:00 +5°C° 0 mm 3 mps 739 mmHg 91%

    Tomorrow, 20 September, Thursday

    Time Temperature Precipitation Wind Pressure Humidity
    00:00 +4°C° 0 mm 3 mps 739 mmHg 92%
    01:00 +5°C° 0 mm 2 mps 739 mmHg 93%
    02:00 +5°C° 0 mm 2 mps 739 mmHg 93%
    03:00 +5°C° 0 mm 2 mps 739 mmHg 94%
    04:00 +5°C° 0 mm 2 mps 739 mmHg 94%
    05:00 +5°C° 0 mm 2 mps 739 mmHg 94%
    06:00 +5°C° 0 mm 2 mps 739 mmHg 94%
    07:00 +7°C° 0 mm 2 mps 740 mmHg 88%
    08:00 +9°C° 0 mm 2 mps 740 mmHg 83%
    09:00 +10°C° 0 mm 2 mps 740 mmHg 77%
    10:00 +12°C° 0 mm 2 mps 740 mmHg 75%
    11:00 +13°C° 0 mm 2 mps 740 mmHg 72%
    12:00 +14°C° 0 mm 2 mps 740 mmHg 69%
    13:00 +15°C° 0 mm 2 mps 740 mmHg 70%
    14:00 +15°C° 0 mm 2 mps 740 mmHg 70%
    15:00 +15°C° 0 mm 2 mps 740 mmHg 70%
    16:00 +14°C° 0 mm 1 mps 740 mmHg 76%
    17:00 +13°C° 0 mm 1 mps 740 mmHg 83%
    18:00 +12°C° 0 mm 1 mps 740 mmHg 89%
    19:00 +12°C° 0 mm 1 mps 740 mmHg 90%
    20:00 +11°C° 0 mm 1 mps 740 mmHg 92%
    21:00 +11°C° 0 mm 1 mps 740 mmHg 93%
    22:00 +10°C° 0.2 mm 0 mps 741 mmHg 93%
    23:00 +10°C° 0.2 mm 0 mps 741 mmHg 93%

    Day after tomorrow, 21 September, Friday

    Time Temperature Precipitation Wind Pressure Humidity
    00:00 +10°C° 0.2 mm 0 mps 741 mmHg 94%
    01:00 +10°C° 0.2 mm 0 mps 741 mmHg 94%
    02:00 +11°C° 0.2 mm 1 mps 741 mmHg 95%
    03:00 +11°C° 0.2 mm 1 mps 741 mmHg 96%
    04:00 +12°C° 0.3 mm 1 mps 742 mmHg 96%
    05:00 +12°C° 0.3 mm 1 mps 742 mmHg 96%
    06:00 +12°C° 0.3 mm 1 mps 742 mmHg 97%
    07:00 +13°C° 0 mm 2 mps 743 mmHg 95%
    08:00 +13°C° 0 mm 2 mps 743 mmHg 93%
    09:00 +14°C° 0 mm 2 mps 744 mmHg 92%
    10:00 +15°C° 0 mm 2 mps 744 mmHg 89%
    11:00 +15°C° 0 mm 2 mps 744 mmHg 87%
    12:00 +16°C° 0 mm 3 mps 744 mmHg 84%
    13:00 +17°C° 0 mm 3 mps 745 mmHg 81%
    14:00 +17°C° 0 mm 3 mps 745 mmHg 79%
    15:00 +18°C° 0 mm 3 mps 745 mmHg 76%
    16:00 +17°C° 0 mm 2 mps 745 mmHg 80%
    17:00 +16°C° 0 mm 2 mps 745 mmHg 83%
    18:00 +15°C° 0 mm 1 mps 746 mmHg 87%
    19:00 +15°C° 0 mm 1 mps 746 mmHg 89%
    20:00 +14°C° 0 mm 1 mps 746 mmHg 91%
    21:00 +13°C° 0 mm 1 mps 746 mmHg 92%
    22:00 +13°C° 0 mm 1 mps 746 mmHg 93%
    23:00 +13°C° 0 mm 2 mps 747 mmHg 93%

    22 September, Saturday

    Time Temperature Precipitation Wind Pressure Humidity
    00:00 +13°C° 0 mm 2 mps 747 mmHg 94%
    01:00 +13°C° 0 mm 2 mps 747 mmHg 94%
    02:00 +13°C° 0 mm 2 mps 747 mmHg 95%
    03:00 +12°C° 0 mm 2 mps 747 mmHg 96%
    04:00 +12°C° 0 mm 2 mps 747 mmHg 96%
    05:00 +12°C° 0 mm 2 mps 748 mmHg 96%
    06:00 +12°C° 0 mm 2 mps 748 mmHg 97%
    07:00 +14°C° 0 mm 2 mps 748 mmHg 92%
    08:00 +16°C° 0 mm 2 mps 748 mmHg 87%
    09:00 +17°C° 0 mm 2 mps 748 mmHg 83%
    10:00 +19°C° 0 mm 2 mps 748 mmHg 77%
    11:00 +20°C° 0 mm 2 mps 748 mmHg 72%
    12:00 +21°C° 0 mm 2 mps 748 mmHg 66%
    13:00 +22°C° 0 mm 3 mps 748 mmHg 65%
    14:00 +22°C° 0 mm 3 mps 748 mmHg 64%
    15:00 +22°C° 0 mm 3 mps 747 mmHg 63%
    16:00 +20°C° 0 mm 3 mps 747 mmHg 70%
    17:00 +19°C° 0 mm 2 mps 747 mmHg 77%
    18:00 +17°C° 0 mm 2 mps 747 mmHg 84%
    19:00 +17°C° 0 mm 2 mps 747 mmHg 86%
    20:00 +16°C° 0 mm 2 mps 747 mmHg 89%
    21:00 +15°C° 0 mm 2 mps 747 mmHg 91%
    22:00 +15°C° 0 mm 2 mps 747 mmHg 92%
    23:00 +15°C° 0 mm 2 mps 747 mmHg 92%

    23 September, Sunday

    Time Temperature Precipitation Wind Pressure Humidity
    00:00 +13°C° 0 mm 3 mps 747 mmHg 93%
    01:00 +13°C° 0 mm 3 mps 747 mmHg 94%
    02:00 +13°C° 0 mm 3 mps 747 mmHg 94%
    03:00 +13°C° 0 mm 3 mps 747 mmHg 94%
    04:00 +12°C° 0 mm 3 mps 747 mmHg 95%
    05:00 +12°C° 0 mm 3 mps 747 mmHg 95%
    06:00 +12°C° 0 mm 3 mps 747 mmHg 95%
    07:00 +14°C° 0 mm 3 mps 747 mmHg 88%
    08:00 +16°C° 0 mm 3 mps 747 mmHg 81%
    09:00 +18°C° 0 mm 4 mps 746 mmHg 74%
    10:00 +19°C° 0 mm 4 mps 746 mmHg 68%
    11:00 +21°C° 0 mm 5 mps 746 mmHg 62%
    12:00 +22°C° 0 mm 5 mps 746 mmHg 57%
    13:00 +22°C° 0 mm 5 mps 746 mmHg 57%
    14:00 +22°C° 0 mm 5 mps 745 mmHg 58%
    15:00 +22°C° 0 mm 5 mps 745 mmHg 58%
    16:00 +20°C° 0 mm 5 mps 745 mmHg 64%
    17:00 +19°C° 0 mm 4 mps 744 mmHg 69%
    18:00 +17°C° 0 mm 4 mps 744 mmHg 74%
    19:00 +17°C° 0 mm 4 mps 744 mmHg 75%
    20:00 +17°C° 0 mm 4 mps 744 mmHg 76%
    21:00 +15°C° 0 mm 4 mps 744 mmHg 77%
    22:00 +15°C° 0 mm 5 mps 743 mmHg 77%
    23:00 +15°C° 0 mm 5 mps 743 mmHg 77%

    24 September, Monday

    Time Temperature Precipitation Wind Pressure Humidity
    00:00 +14°C° 0 mm 5 mps 743 mmHg 77%
    01:00 +14°C° 0 mm 5 mps 742 mmHg 77%
    02:00 +14°C° 0 mm 5 mps 742 mmHg 77%
    03:00 +14°C° 0 mm 5 mps 742 mmHg 77%
    04:00 +13°C° 0 mm 5 mps 742 mmHg 75%
    05:00 +13°C° 0 mm 5 mps 741 mmHg 74%
    06:00 +13°C° 0 mm 5 mps 741 mmHg 72%
    07:00 +14°C° 0 mm 5 mps 741 mmHg 66%
    08:00 +15°C° 0 mm 5 mps 741 mmHg 60%
    09:00 +16°C° 0 mm 6 mps 741 mmHg 54%
    10:00 +17°C° 0 mm 6 mps 741 mmHg 51%
    11:00 +19°C° 0 mm 6 mps 741 mmHg 48%
    12:00 +20°C° 0 mm 6 mps 741 mmHg 45%
    13:00 +20°C° 0 mm 5 mps 741 mmHg 46%
    14:00 +20°C° 0 mm 5 mps 741 mmHg 47%
    15:00 +20°C° 0 mm 5 mps 742 mmHg 48%
    16:00 +19°C° 0 mm 4 mps 742 mmHg 52%
    17:00 +17°C° 0 mm 3 mps 742 mmHg 56%
    18:00 +15°C° 0 mm 2 mps 742 mmHg 60%
    19:00 +14°C° 0 mm 1 mps 743 mmHg 62%
    20:00 +14°C° 0 mm 1 mps 743 mmHg 63%
    21:00 +12°C° 0 mm 0 mps 744 mmHg 64%
    22:00 +13°C° 0 mm 1 mps 744 mmHg 65%
    23:00 +13°C° 0 mm 1 mps 744 mmHg 66%
    Show more